This is the latest recevied weather packets stored in our database for station/object OK1VCF-8. If no packets are shown the sender has not sent any weather packets the latest 10 day(s).
| Time | Temp. | Humidity | Pressure | Rain* | Wind** | Luminosity | Snow |
|---|---|---|---|---|---|---|---|
| 1777720151 | 22.22° C | 27% | 1024 hPa | - | - | - | - |
| 1777719712 | 22.22° C | 29% | 1024 hPa | - | - | - | - |
| 1777719272 | 21.67° C | 30% | 1024 hPa | - | - | - | - |
| 1777718833 | 22.22° C | 28% | 1024.2 hPa | - | - | - | - |
| 1777718393 | 22.22° C | 30% | 1024.4 hPa | - | - | - | - |
| 1777717955 | 22.22° C | 30% | 1024.5 hPa | - | - | - | - |
| 1777717514 | 22.22° C | 32% | 1024.4 hPa | - | - | - | - |
| 1777717076 | 21.67° C | 32% | 1024.6 hPa | - | - | - | - |
| 1777716636 | 21.11° C | 30% | 1024.7 hPa | - | - | - | - |
| 1777716196 | 22.22° C | 31% | 1024.7 hPa | - | - | - | - |
| 1777715754 | 22.22° C | 34% | 1024.9 hPa | - | - | - | - |
| 1777715315 | 21.11° C | 36% | 1024.9 hPa | - | - | - | - |
| 1777714877 | 21.11° C | 36% | 1025.1 hPa | - | - | - | - |
| 1777714436 | 21.11° C | 37% | 1025.2 hPa | - | - | - | - |
| 1777713831 | 20° C | 38% | 1025.2 hPa | - | - | - | - |
| 1777713394 | 20° C | 38% | 1025.2 hPa | - | - | - | - |
| 1777712955 | 20° C | 40% | 1025.4 hPa | - | - | - | - |
| 1777712516 | 20° C | 42% | 1025.4 hPa | - | - | - | - |
| 1777712076 | 19.44° C | 43% | 1025.5 hPa | - | - | - | - |
| 1777711636 | 18.89° C | 45% | 1025.6 hPa | - | - | - | - |
| 1777711198 | 18.33° C | 46% | 1025.7 hPa | - | - | - | - |
| 1777710758 | 17.78° C | 47% | 1025.8 hPa | - | - | - | - |
| 1777710318 | 17.78° C | 48% | 1025.6 hPa | - | - | - | - |
| 1777709878 | 17.22° C | 48% | 1025.8 hPa | - | - | - | - |
| 1777709439 | 16.67° C | 48% | 1025.9 hPa | - | - | - | - |
* Rain since midnight (hover to see other rain measurements)
** Current wind speed in m/s (hover to see current wind gust speed)